Location: Waco, TX
(31.5480°N, 97.1670°W)
Time: 09:33:23
(UTC-05:00)

ISS - Pass Details

Date: 15 October 2019
Orbit: 411 x 421 km, 51.6° (Epoch: 18 October)

Event Time Altitude Azimuth Distance (km) Brightness Sun altitude
Rises 09:56:06 0° 222° (SW) 2,348 -0.1 27.9°
Reaches altitude 10° 09:58:12 10° 221° (SW) 1,487 -1.0 28.3°
Maximum altitude 10:01:32 82° 133° (SE) 424 -3.1 28.9°
Drops below altitude 10° 10:04:53 10° 47° (NE) 1,490 -0.7 29.5°
Sets 10:06:58 0° 46° (NE) 2,353 0.2 29.9°
